Location: Unspecified
(49.9820°N, 20.4363°E)
Time: 19:17:46
(UTC+02:00)

ISS - Pass Details

Date: 18 March 2018
Orbit: 403 x 408 km, 51.6° (Epoch: 21 September)

Event Time Altitude Azimuth Distance (km) Brightness Sun altitude
Exits shadow 05:08:48 - 252° (WSW) 1,596 -1.5 -6.8°
Reaches altitude 10° 05:09:31 10° 241° (WSW) 1,486 -1.5 -6.7°
Maximum altitude 05:10:26 11° 225° (SW) 1,430 -1.5 -6.5°
Drops below altitude 10° 05:11:22 10° 209° (SSW) 1,480 -1.3 -6.4°
Sets 05:14:47 0° 171° (S) 2,329 0.1 -5.8°
